This is the latest recevied weather packets stored in our database for station/object N8WEL. If no packets are shown the sender has not sent any weather packets the latest 10 day(s).
| Time | Temp. | Humidity | Pressure | Rain* | Wind** | Luminosity | Snow |
|---|---|---|---|---|---|---|---|
| 1778035977 | 14.44° C | 97% | 1006.4 hPa | 2.79 mm | - | - | - |
| 1778035976 | 14.44° C | 97% | 1006.4 hPa | 2.54 mm | - | - | - |
| 1778035976 | 14.44° C | 97% | 1006.4 hPa | 2.54 mm | - | - | - |
| 1778027783 | 14.44° C | 97% | 1006.4 hPa | 2.03 mm | - | - | - |
| 1778027782 | 14.44° C | 97% | 1006.1 hPa | 1.78 mm | - | - | - |
| 1778027782 | 14.44° C | 97% | 1006.3 hPa | 1.78 mm | - | - | - |
| 1778027781 | 14.44° C | 97% | 1006.1 hPa | 2.03 mm | - | - | - |
| 1778027780 | 14.44° C | 97% | 1006.2 hPa | 2.03 mm | - | - | - |
| 1778027780 | 14.44° C | 97% | 1006.1 hPa | 2.03 mm | - | - | - |
| 1778027779 | 14.44° C | 97% | 1006.2 hPa | 2.03 mm | - | - | - |
| 1778027778 | 14.44° C | 97% | 1006.1 hPa | 2.79 mm | - | - | - |
| 1778027777 | 14.44° C | 97% | 1006.1 hPa | 2.79 mm | - | - | - |
| 1778024469 | 15° C | 97% | 1006.5 hPa | 3.56 mm | - | - | - |
| 1778024469 | 14.44° C | 97% | 1006.5 hPa | 3.56 mm | - | - | - |
| 1778024468 | 14.44° C | 97% | 1006.6 hPa | 3.3 mm | - | - | - |
| 1778024467 | 15° C | 97% | 1006.7 hPa | 2.79 mm | - | - | - |
| 1778024467 | 15° C | 96% | 1006.7 hPa | 2.54 mm | - | - | - |
| 1778021141 | 15° C | 96% | 1006.8 hPa | 2.29 mm | - | - | - |
| 1778020816 | 15° C | 96% | 1006.7 hPa | 2.29 mm | - | - | - |
| 1778020216 | 15° C | 96% | 1006.8 hPa | 1.78 mm | - | - | - |
| 1778019916 | 15° C | 96% | 1006.8 hPa | 1.52 mm | - | - | - |
| 1778019616 | 15° C | 96% | 1006.9 hPa | 1.52 mm | - | - | - |
| 1778019334 | 15° C | 96% | 1007.1 hPa | 1.02 mm | - | - | - |
| 1778019157 | 15.56° C | 91% | 1006.9 hPa | 6.35 mm | - | - | - |
| 1778019156 | 15.56° C | 91% | 1006.8 hPa | 6.1 mm | - | - | - |
* Rain latest hour (hover to see other rain measurements)
** Current wind speed in m/s (hover to see current wind gust speed)